This demonstration page uses our WeatherBlox Daily Observations layout. Learn more.

Left ArrowRight Arrow

36.19886, -115.1175

Hourly Observations for November 7, 2015

Temp ( °F °C ) Dew Point ( °F °C ) Humidity (%) Winds ( mph kmh ) Pressure ( in mb ) Visibility ( mi km ) Precip ( " mm )
12:53 am 00:53 Clear 51 10.6 24 -4.4 35 35 Calm 30.31 1026 10 16 0.00 0.00
1:53 am 01:53 Clear 48 8.9 25 -3.9 41 41 Calm 30.31 1027 10 16 0.00 0.00
2:53 am 02:53 Clear 49 9.4 25 -3.9 39 39 NNE 5 7 30.30 1026 10 16 0.00 0.00
3:53 am 03:53 Clear 49 9.4 25 -3.9 39 39 NNW 7 11 30.30 1026 10 16 0.00 0.00
4:53 am 04:53 Clear 48 8.9 25 -3.9 41 41 NW 7 11 30.31 1027 10 16 0.00 0.00
5:53 am 05:53 Clear 47 8.3 24 -4.4 41 41 N 6 9 30.32 1027 10 16 0.00 0.00
6:53 am 06:53 Sunny 49 9.4 24 -4.4 38 38 N 6 9 30.33 1027 10 16 0.00 0.00
7:53 am 07:53 Sunny 51 10.6 27 -2.8 39 39 SSE 3 6 30.35 1028 10 16 0.00 0.00
8:53 am 08:53 Sunny 55 12.8 25 -3.9 31 31 Calm 30.34 1028 10 16 0.00 0.00
9:53 am 09:53 Sunny 59 15 23 -5 25 25 NE 7 11 30.33 1027 10 16 0.00 0.00
10:53 am 10:53 Sunny 60 15.6 22 -5.6 23 23 NNW 5 7 30.31 1026 10 16 0.00 0.00
11:53 am 11:53 Sunny 61 16.1 22 -5.6 22 22 Calm 30.27 1025 10 16 0.00 0.00
12:53 pm 12:53 Sunny 62 16.7 21 -6.1 21 21 Calm 30.23 1024 10 16 0.00 0.00
1:53 pm 13:53 Sunny 63 17.2 20 -6.7 19 19 ESE 9 15 30.20 1023 10 16 0.00 0.00
2:53 pm 14:53 Sunny 63 17.2 20 -6.7 19 19 E 14 22 30.18 1022 10 16 0.00 0.00
3:53 pm 15:53 Sunny 63 17.2 21 -6.1 20 20 E 9 15 30.17 1022 10 16 0.00 0.00
4:53 pm 16:53 Clear 60 15.6 20 -6.7 21 21 E 5 7 30.16 1021 10 16 0.00 0.00
5:53 pm 17:53 Clear 58 14.4 22 -5.6 25 25 WSW 5 7 30.16 1022 10 16 0.00 0.00
6:53 pm 18:53 Clear 56 13.3 24 -4.4 29 29 W 6 9 30.16 1021 10 16 0.00 0.00
7:53 pm 19:53 Clear 55 12.8 23 -5 29 29 WNW 5 7 30.16 1022 10 16 0.00 0.00
8:53 pm 20:53 Clear 52 11.1 22 -5.6 31 31 NW 6 9 30.16 1021 10 16 0.00 0.00
9:53 pm 21:53 Clear 51 10.6 24 -4.4 35 35 WNW 5 7 30.16 1021 10 16 0.00 0.00
10:53 pm 22:53 Clear 48 8.9 25 -3.9 41 41 NW 6 9 30.15 1021 10 16 0.00 0.00
11:53 pm 23:53 Clear 48 8.9 25 -3.9 41 41 NNW 5 7 30.14 1021 10 16 0.00 0.00

Powered by AerisWeather